[[[{"header":{"parameterUnit":"kt","parameterCategory":2,"dx":1,"dy":1,"la1":30.253999710083008,"la2":30.299108505249023,"lo1":-89.0895004272461,"lo2":-89.04439544677734,"nx":28,"ny":28,"refTime":"2022-10-24T21:00:00:Z","depth":0,"parameterNumber":1,"parameterNumberName":"U-component_of_WINDS"},"data":[-7.1938,-7.1945,-7.1917,-7.1914,-7.1888,-7.188,-7.1869,-7.1851,-7.1829,-7.1819,-7.1807,-7.178,-7.1746,-7.1727,-7.1713,-7.17,-7.1696,-7.1723,-7.1702,-7.1611,-7.1596,-7.1582,-7.1576,-7.1723,-7.1723,-7.1799,-7.18,-7.1801,-7.1884,-7.1858,-7.1847,-7.1816,-7.1808,-7.1767,-7.1739,-7.1734,-7.1728,-7.1701,-7.1687,-7.1674,-7.166,-7.1615,-7.1597,-7.1601,-7.1579,-7.1598,-7.1595,-7.159,-7.1493,-7.1487,-7.1617,-7.1617,-7.1617,-7.1617,-7.1617,-7.1617,-7.1777,-7.1783,-7.1745,-7.1732,-7.1709,-7.1689,-7.1688,-7.1652,-7.164,-7.1614,-7.1581,-7.1573,-7.1539,-7.1499,-7.1477,-7.1471,-7.1443,-7.1453,-7.1455,-7.1458,-7.1466,-7.1361,-7.1467,-7.1466,-7.1466,-7.1466,-7.1465,0,-7.1688,-7.1664,-7.1648,-7.1626,-7.1614,-7.1593,-7.1568,-7.1567,-7.1499,-7.1492,-7.1479,-7.1465,-7.1441,-7.1424,-7.1398,-7.1371,-7.1322,-7.1314,-7.1321,-7.1335,-7.1354,-7.1343,-7.1184,-7.1309,-7.1308,-7.1307,-7.1306,-7.1305,-7.1576,-7.1585,-7.1529,-7.1523,-7.15,-7.1491,-7.1478,-7.1417,-7.1406,-7.1366,-7.1374,-7.1356,-7.1338,-7.1322,-7.1274,-7.1254,-7.1228,-7.128,-7.1224,-7.1242,-7.1226,-7.1225,-7.1226,-7.129,-7.1292,-7.1293,-7.1295,0,-7.1516,-7.1463,-7.1465,-7.1406,-7.1392,-7.1404,-7.1354,-7.1356,-7.1316,-7.1314,-7.1309,-7.1247,-7.1234,-7.1176,-7.1149,-7.112,-7.1143,-7.112,-7.1156,-7.1146,-7.1186,-7.1182,-7.1323,-7.1339,-7.119,-7.1191,-7.1193,0,-7.1397,-7.141,-7.1329,-7.1332,-7.1346,-7.128,-7.1295,-7.1261,-7.1226,-7.1223,-7.1158,-7.1156,-7.1082,-7.1073,-7.1029,-7.1037,-7.1032,-7.1009,-7.0996,-7.1012,-7.1014,-7.1,-7.0991,-7.0968,-7.0968,-7.0967,-7.0967,0,-7.1305,-7.1274,-7.128,-7.1264,-7.1198,-7.1204,-7.1177,-7.1134,-7.1121,-7.1096,-7.1086,-7.1062,-7.1047,-7.103,-7.0972,-7.0937,-7.0982,-7.092,-7.0957,-7.0958,-7.0964,-7.0963,-7.1109,-7.0966,-7.0965,-7.0965,-7.0965,0,-7.1196,-7.117,-7.1187,-7.113,-7.1124,-7.1128,-7.1097,-7.1086,-7.1046,-7.1017,-7.0996,-7.0942,-7.0943,-7.0888,-7.0889,-7.0859,-7.085,-7.0827,-7.0829,-7.082,-7.0757,-7.0843,-7.0991,-7.1002,-7.0822,-7.0821,-7.082,0,-7.1106,-7.1105,-7.1045,-7.1062,-7.1052,-7.0977,-7.098,-7.0945,-7.0906,-7.0893,-7.085,-7.0834,-7.078,-7.0766,-7.0776,-7.0729,-7.0769,-7.0722,-7.0704,-7.0704,-7.0714,-7.0851,-7.0884,-7.0966,-7.0804,-7.0805,-7.0806,0,-7.1025,-7.0941,-7.0947,-7.0924,-7.0864,-7.0854,-7.0859,-7.0827,-7.0822,-7.0788,-7.0788,-7.0766,-7.0723,-7.07,-7.0651,-7.0664,-7.074,-7.0615,-7.0612,-7.0638,-7.079,-7.0823,-7.0837,-7.0705,-7.0707,-7.0709,-7.0794,0,-7.0872,-7.0862,-7.0877,-7.0825,-7.0809,-7.0814,-7.0745,-7.0737,-7.0691,-7.0646,-7.0647,-7.0597,-7.0563,-7.0562,-7.0515,-7.0563,-7.0544,-7.0497,-7.0432,-7.0523,-7.0549,-7.056,-7.04,-7.0398,-7.0396,-7.0394,0,0,-7.0796,-7.0778,-7.0707,-7.0705,-7.0685,-7.06,-7.0612,-7.0583,-7.0525,-7.0514,-7.0479,-7.0438,-7.0397,-7.0403,-7.0426,-7.0413,-7.0414,-7.0382,-7.0481,-7.0491,-7.05,-7.053,-7.0542,-7.0391,-7.039,-7.0389,-7.0389,0,-7.0723,-7.0684,-7.0695,-7.0662,-7.0608,-7.0559,-7.0563,-7.0493,-7.0464,-7.0461,-7.0388,-7.0379,-7.0345,-7.0312,-7.0291,-7.0383,-7.0326,-7.0378,-7.045,-7.0464,-7.0477,-7.0488,-7.052,-7.0532,-7.0384,-7.0384,-7.0384,0,-7.0629,-7.0578,-7.0575,-7.0524,-7.0487,-7.0477,-7.0394,-7.0386,-7.0378,-7.028,-7.0277,-7.0239,-7.0188,-7.0202,-7.0205,-7.0172,-7.0249,-7.0211,-7.0221,-7.0218,-7.0228,-7.0243,-7.0257,-7.0076,-7.0076,-7.0075,0,0,-7.0575,-7.0563,-7.0484,-7.0502,-7.0484,-7.0408,-7.0395,-7.0345,-7.0299,-7.0281,-7.0229,-7.0188,-7.0167,-7.0155,-7.0131,-7.0157,-7.014,-7.0176,-7.019,-7.0203,-7.0206,-7.0219,-7.0235,-7.0072,-7.0072,-7.0072,0,0,-7.0547,-7.0456,-7.0415,-7.0427,-7.0388,-7.0309,-7.0323,-7.0271,-7.0241,-7.0231,-7.0145,-7.013,-7.0141,-7.0105,-7.0075,-7.0106,-7.0044,-7.005,-7.0128,-7.0145,-7.0159,-7.0165,-6.9978,0,0,0,0,0,-7.0432,-7.0468,-7.0432,-7.0423,-7.0354,-7.033,-7.032,-7.0249,-7.0207,-7.0221,-7.0169,-7.0108,-7.0072,-7.0043,-7.0035,-7.0067,-7.0034,-7.0041,-7.0047,-7.0153,-7.0172,-7.0188,0,0,0,0,0,0,-7.0428,-7.0417,-7.0431,-7.0355,-7.0338,-7.0327,-7.0241,-7.0223,-7.0204,-7.0193,-7.012,-7.0105,-7.0044,-7.0042,-7.0036,-7.0068,-6.9979,-7.0037,-7.0042,-7.0048,-7.016,-7.0175,-7.0188,0,0,0,0,0,-7.0424,-7.0415,-7.0323,-7.0353,-7.0339,-7.0254,-7.0239,-7.0223,-7.0207,-7.0124,-7.0108,-7.0155,-7.0047,-7.0037,-7.0038,-7.0072,-6.9983,-6.9981,-7.004,-7.0045,-7.0049,-7.0167,0,0,0,0,0,0,-7.0422,-7.04,-7.0318,-7.0311,-7.0333,-7.0253,-7.0238,-7.0224,-7.0138,-7.0122,-7.0154,-7.0146,-7.0049,-7.0041,-7.0034,-7.0078,-6.9986,-6.9984,-6.9983,-7.0044,-7.0047,-7.005,0,0,0,0,0,0,-7.0405,-7.0395,-7.0315,-7.0293,-7.0283,-7.0253,-7.0239,-7.0228,-7.0138,-7.0173,-7.0163,-7.0152,-7.006,-7.0045,-7.0039,-7.0024,-6.9988,-6.9986,-6.9985,-6.9984,-7.0047,-7.0049,0,0,0,0,0,0,-7.04,-7.0391,-7.0294,-7.0286,-7.0277,-7.0194,-7.0241,-7.0174,-7.012,-7.0178,-7.0114,-7.011,-7.0065,-7.0057,-7.0042,-7.0031,-7.0026,-6.9988,-6.9987,-6.9986,-6.9985,0,0,0,0,0,0,0,-7.0395,-7.0467,-7.036,-7.0281,-7.0273,-7.0248,-7.0246,-7.0244,-7.012,-7.0117,-7.0114,-7.0112,-6.9998,-6.9996,-6.9994,-7.0037,0,0,-6.9988,-6.9987,0,0,0,0,0,0,0,0,-7.0468,-7.0467,-7.0359,-7.0358,-7.0357,-7.0247,-7.0246,-7.0244,-7.0119,-7.0117,-7.0115,-7.0113,-6.9998,-6.9996,-6.9995,0,0,0,0,0,0,0,0,0,0,0,0,0,0,0,-7.0359,-7.0358,0,-7.0247,-7.0246,-7.0244,-7.0119,-7.0117,-7.0115,-7.0114,-6.9997,-6.9996,-6.9995,0,0,0,0,0,0,0,0,0,0,0,0,0,0,0,0,0,0,0,0,0,0,0,0,0,0,0,0,0,0,0,0,0,0,0,0,0,0,0,0,0,0,0,0,0,0,0,0,0,0,0,0,0,0,0,0,0,0,0,0,0,0,0,0,0,0,0,0,0]}],[{"header":{"parameterUnit":"kt","parameterCategory":2,"dx":1,"dy":1,"la1":30.253999710083008,"la2":30.299108505249023,"lo1":-89.0895004272461,"lo2":-89.04439544677734,"nx":28,"ny":28,"refTime":"2022-10-24T21:00:00:Z","depth":0,"parameterNumber":2,"parameterNumberName":"V-component_of_WINDS"},"data":[5.3818,5.3763,5.374,5.3665,5.363,5.3574,5.3545,5.3505,5.3466,5.3393,5.3346,5.3312,5.326,5.3194,5.3139,5.3124,5.3102,5.3103,5.3085,5.311,5.3112,5.3113,5.3127,5.3098,5.3098,5.3063,5.3063,5.3062,5.3846,5.3814,5.3766,5.3704,5.3663,5.365,5.3598,5.3563,5.3511,5.3461,5.3412,5.3343,5.3284,5.3228,5.3166,5.3136,5.3123,5.3121,5.3122,5.3114,5.314,5.3155,5.3132,5.3132,5.3132,5.3132,5.3132,5.3132,5.3892,5.3858,5.3807,5.3755,5.3716,5.3673,5.3636,5.3596,5.3546,5.348,5.3456,5.3394,5.3336,5.3244,5.3205,5.3154,5.3151,5.3138,5.3134,5.3132,5.3135,5.3194,5.3141,5.3141,5.3141,5.3141,5.3141,0,5.3917,5.39,5.3851,5.3797,5.3756,5.3709,5.3661,5.3636,5.3583,5.3543,5.3482,5.3442,5.336,5.3298,5.323,5.319,5.3166,5.316,5.3151,5.3163,5.3185,5.3174,5.322,5.316,5.3161,5.3161,5.3161,5.3161,5.3962,5.3924,5.3856,5.3825,5.3793,5.3742,5.3706,5.3662,5.3624,5.3555,5.3525,5.3462,5.3409,5.331,5.3257,5.3194,5.3181,5.3162,5.317,5.3186,5.3182,5.3185,5.3182,5.3161,5.3161,5.3161,5.3161,0,5.399,5.3949,5.3881,5.3814,5.3796,5.3758,5.3699,5.366,5.3623,5.3565,5.3548,5.3488,5.3425,5.3374,5.329,5.3265,5.3199,5.3187,5.3221,5.3216,5.3195,5.3199,5.3132,5.3122,5.3149,5.3149,5.3149,0,5.4012,5.3962,5.3903,5.3865,5.3809,5.3765,5.371,5.3672,5.362,5.3573,5.354,5.3496,5.3436,5.3384,5.3346,5.3283,5.3265,5.3242,5.3233,5.3246,5.3249,5.3222,5.3224,5.3211,5.3211,5.3211,5.3212,0,5.4062,5.3968,5.3907,5.3879,5.3799,5.3771,5.3735,5.3676,5.3639,5.3581,5.3556,5.3491,5.3455,5.3404,5.3357,5.3365,5.3276,5.3277,5.3252,5.3254,5.3234,5.3236,5.3192,5.3212,5.3212,5.3212,5.3212,0,5.4071,5.4019,5.3935,5.3869,5.3846,5.3803,5.3739,5.369,5.3629,5.3603,5.3556,5.3526,5.3464,5.347,5.3384,5.3409,5.3375,5.3346,5.3344,5.3334,5.3341,5.3325,5.3287,5.3282,5.3328,5.3329,5.333,0,5.4141,5.4044,5.4006,5.3925,5.3873,5.3842,5.3792,5.3739,5.3701,5.3649,5.3604,5.3543,5.3536,5.3509,5.3473,5.3424,5.3392,5.3426,5.3349,5.3347,5.3369,5.3334,5.3342,5.3302,5.3341,5.334,5.3339,0,5.4189,5.4093,5.4081,5.4047,5.397,5.3924,5.3867,5.3798,5.3767,5.3706,5.3657,5.3567,5.356,5.3514,5.348,5.3445,5.3412,5.3439,5.3437,5.3438,5.3341,5.335,5.3343,5.3397,5.3395,5.3394,5.3348,0,5.4219,5.4162,5.4127,5.4049,5.4006,5.395,5.3897,5.3858,5.3833,5.3793,5.3717,5.3652,5.3576,5.3553,5.3524,5.3462,5.3464,5.3453,5.3453,5.343,5.3413,5.3407,5.3483,5.3483,5.3482,5.3482,0,0,5.4297,5.4214,5.4171,5.4115,5.4075,5.404,5.3986,5.3942,5.3852,5.3825,5.3825,5.3689,5.3635,5.3547,5.3536,5.3503,5.3487,5.3495,5.3441,5.3437,5.3433,5.3416,5.341,5.3482,5.3481,5.3481,5.3481,0,5.4297,5.425,5.4197,5.4151,5.4081,5.4041,5.4029,5.3951,5.3921,5.3845,5.3813,5.376,5.3648,5.3598,5.3557,5.3506,5.3482,5.3486,5.3479,5.344,5.3436,5.3433,5.3416,5.341,5.348,5.348,5.348,0,5.4336,5.4281,5.425,5.4157,5.4109,5.4053,5.4043,5.3982,5.3939,5.3896,5.382,5.3776,5.37,5.3623,5.3586,5.3584,5.3481,5.3501,5.3501,5.3495,5.3454,5.345,5.3446,5.3499,5.35,5.35,0,0,5.4342,5.4289,5.4213,5.4153,5.4125,5.4064,5.4026,5.3996,5.3933,5.3907,5.3849,5.3785,5.372,5.3678,5.3613,5.3536,5.3516,5.3506,5.3505,5.3505,5.3499,5.3457,5.3453,5.3501,5.3501,5.3501,0,0,5.4344,5.4255,5.4242,5.4166,5.4109,5.4026,5.399,5.397,5.3906,5.3906,5.3847,5.3827,5.3753,5.3708,5.3733,5.3612,5.3613,5.3605,5.3643,5.3641,5.364,5.3652,5.3707,0,0,0,0,0,5.4316,5.4267,5.4256,5.4235,5.4114,5.4034,5.4017,5.397,5.3974,5.3948,5.3896,5.3872,5.371,5.373,5.3708,5.3681,5.3517,5.3515,5.3512,5.3542,5.3541,5.3539,0,0,0,0,0,0,5.4307,5.4282,5.4257,5.4174,5.4146,5.4035,5.4031,5.4017,5.3976,5.3973,5.3883,5.3869,5.3825,5.3738,5.3719,5.3694,5.3714,5.3516,5.3514,5.3512,5.3542,5.354,5.3539,0,0,0,0,0,5.43,5.428,5.4098,5.4174,5.415,5.4076,5.4033,5.4021,5.3988,5.3906,5.3891,5.3956,5.3825,5.3805,5.3726,5.3704,5.3727,5.372,5.3515,5.3513,5.3511,5.3541,0,0,0,0,0,0,5.4295,5.4267,5.4092,5.4083,5.4189,5.4081,5.4063,5.4024,5.3922,5.3907,5.3976,5.3975,5.3825,5.381,5.3795,5.3711,5.3737,5.373,5.3726,5.3513,5.3512,5.351,0,0,0,0,0,0,5.4277,5.4259,5.4087,5.4109,5.4101,5.4086,5.407,5.3994,5.3921,5.3997,5.3993,5.3977,5.3846,5.3812,5.3801,5.3683,5.3745,5.3739,5.3734,5.3731,5.3512,5.3511,0,0,0,0,0,0,5.4269,5.4253,5.4111,5.4105,5.4099,5.3991,5.4017,5.3894,5.3944,5.4002,5.3947,5.3948,5.3849,5.3836,5.3805,5.3693,5.3686,5.3745,5.3741,5.3737,5.3735,0,0,0,0,0,0,0,5.4262,5.4378,5.4148,5.4102,5.4097,5.3998,5.3995,5.3992,5.3944,5.3945,5.3947,5.3948,5.3784,5.3777,5.3769,5.3701,0,0,5.3746,5.3743,0,0,0,0,0,0,0,0,5.4384,5.438,5.4147,5.4145,5.4144,5.3997,5.3995,5.3993,5.3945,5.3945,5.3946,5.3947,5.3782,5.3776,5.377,0,0,0,0,0,0,0,0,0,0,0,0,0,0,0,5.4147,5.4146,0,5.3997,5.3995,5.3993,5.3945,5.3945,5.3946,5.3947,5.378,5.3776,5.377,0,0,0,0,0,0,0,0,0,0,0,0,0,0,0,0,0,0,0,0,0,0,0,0,0,0,0,0,0,0,0,0,0,0,0,0,0,0,0,0,0,0,0,0,0,0,0,0,0,0,0,0,0,0,0,0,0,0,0,0,0,0,0,0,0,0,0,0,0]}]]]